�������C�����ː����j�^�v���󋵏��
Date,Time,Cs137(Bq/L),Cs134(Bq/L),�S��(Bq/L)
2017/03/31,00:00,1.3,0.089,9.2
2017/03/31,00:10,1.3,0.076,9.5
2017/03/31,00:20,1.3,0.081,9.6
2017/03/31,00:30,1.3,0.076,ND
2017/03/31,00:40,1.3,0.077,ND
2017/03/31,00:50,1.3,0.088,ND
2017/03/31,01:00,1.3,0.083,ND
2017/03/31,01:10,1.3,0.094,ND
2017/03/31,01:20,1.3,0.089,ND
2017/03/31,01:30,1.3,0.091,ND
2017/03/31,01:40,1.3,0.090,11
2017/03/31,01:50,1.3,0.083,13
2017/03/31,02:00,1.3,0.087,14
2017/03/31,02:10,1.3,0.095,11
2017/03/31,02:20,1.3,0.088,11
2017/03/31,02:30,1.3,0.091,12
2017/03/31,02:40,1.2,0.10,ND
2017/03/31,02:50,1.2,0.10,ND
2017/03/31,03:00,1.2,0.10,ND
2017/03/31,03:10,1.2,0.10,11
2017/03/31,03:20,1.2,0.10,13
2017/03/31,03:30,1.2,0.10,10
2017/03/31,03:40,1.0,0.12,12
2017/03/31,03:50,1.0,0.12,10
2017/03/31,04:00,1.0,0.11,ND
2017/03/31,04:10,1.2,0.076,ND
2017/03/31,04:20,1.0,0.11,ND
2017/03/31,04:30,1.2,0.070,ND
2017/03/31,04:40,1.2,0.065,ND
2017/03/31,04:50,1.2,0.060,ND
2017/03/31,05:00,1.2,0.065,ND
2017/03/31,05:10,1.2,0.067,ND
2017/03/31,05:20,1.2,0.071,ND
2017/03/31,05:30,1.2,0.069,ND
2017/03/31,05:40,1.2,0.073,ND
2017/03/31,05:50,1.2,0.076,ND
2017/03/31,06:00,1.2,0.072,ND
2017/03/31,06:10,1.2,0.072,ND
2017/03/31,06:20,1.2,0.065,ND
2017/03/31,06:30,1.2,0.069,ND
2017/03/31,06:40,1.2,0.078,ND
2017/03/31,06:50,1.2,0.077,ND
2017/03/31,07:00,1.2,0.074,ND
2017/03/31,07:10,1.2,0.074,ND
2017/03/31,07:20,1.2,0.076,ND
2017/03/31,07:30,1.2,0.078,9.6
2017/03/31,07:40,1.2,0.069,13
2017/03/31,07:50,1.2,0.075,15
2017/03/31,08:00,1.2,0.077,16
2017/03/31,08:10,1.2,0.085,14
2017/03/31,08:20,1.2,0.085,15
2017/03/31,08:30,1.0,0.12,14
2017/03/31,08:40,1.2,0.094,9.5
2017/03/31,08:50,1.2,0.090,8.9
2017/03/31,09:00,1.2,0.080,ND
2017/03/31,09:10,1.1,0.080,11
2017/03/31,09:20,1.1,0.080,12
2017/03/31,09:30,1.1,0.079,12
2017/03/31,09:40,1.2,0.075,12
2017/03/31,09:50,1.2,0.086,12
2017/03/31,10:00,1.2,0.091,11
2017/03/31,10:10,1.2,0.084,8.9
2017/03/31,10:20,1.2,0.093,ND
2017/03/31,10:30,-,-,-
2017/03/31,10:40,-,-,-
2017/03/31,10:50,-,-,-
2017/03/31,11:00,-,-,-
2017/03/31,11:10,-,-,-
2017/03/31,11:20,-,-,-
2017/03/31,11:30,-,-,-
2017/03/31,11:40,-,-,-
2017/03/31,11:50,-,-,-
2017/03/31,12:00,1.2,0.082,ND
2017/03/31,12:10,1.2,0.085,ND
2017/03/31,12:20,1.2,0.078,ND
2017/03/31,12:30,1.2,0.072,ND
2017/03/31,12:40,1.2,0.068,ND
2017/03/31,12:50,1.2,0.064,ND
2017/03/31,13:00,1.2,0.070,ND
2017/03/31,13:10,1.2,0.067,ND
2017/03/31,13:20,1.0,0.099,ND
2017/03/31,13:30,1.2,0.068,ND
2017/03/31,13:40,1.2,0.062,ND
2017/03/31,13:50,1.2,0.072,ND
2017/03/31,14:00,1.2,0.069,ND
2017/03/31,14:10,1.1,0.072,ND
2017/03/31,14:20,1.1,0.073,ND
2017/03/31,14:30,1.1,0.071,ND
2017/03/31,14:40,1.1,0.087,ND
2017/03/31,14:50,0.90,0.12,ND
2017/03/31,15:00,1.1,0.081,ND
2017/03/31,15:10,1.1,0.081,ND
2017/03/31,15:20,1.1,0.075,ND
2017/03/31,15:30,1.1,0.075,ND
2017/03/31,15:40,1.1,0.068,ND
2017/03/31,15:50,1.1,0.062,ND
2017/03/31,16:00,1.1,0.067,ND
2017/03/31,16:10,1.1,0.063,ND
2017/03/31,16:20,1.1,0.068,ND
2017/03/31,16:30,1.1,0.080,ND
2017/03/31,16:40,1.1,0.078,ND
2017/03/31,16:50,1.1,0.065,ND
2017/03/31,17:00,1.1,0.060,ND
2017/03/31,17:10,0.93,0.11,ND
2017/03/31,17:20,1.0,0.065,ND
2017/03/31,17:30,1.0,0.054,ND
2017/03/31,17:40,1.0,0.050,ND
2017/03/31,17:50,1.0,0.062,ND
2017/03/31,18:00,0.99,0.067,ND
2017/03/31,18:10,0.85,0.096,ND
2017/03/31,18:20,1.0,0.070,ND
2017/03/31,18:30,0.98,0.080,ND
2017/03/31,18:40,0.98,0.079,ND
2017/03/31,18:50,0.99,0.083,ND
2017/03/31,19:00,0.88,0.11,ND
2017/03/31,19:10,1.0,0.080,ND
2017/03/31,19:20,1.0,0.090,ND
2017/03/31,19:30,0.85,0.12,ND
2017/03/31,19:40,1.0,0.085,ND
2017/03/31,19:50,1.0,0.074,ND
2017/03/31,20:00,1.0,0.074,9.2
2017/03/31,20:10,1.1,0.064,ND
2017/03/31,20:20,1.1,0.053,ND
2017/03/31,20:30,1.1,0.051,ND
2017/03/31,20:40,0.94,0.082,ND
2017/03/31,20:50,0.96,0.080,ND
2017/03/31,21:00,1.1,0.061,ND
2017/03/31,21:10,1.1,0.069,ND
2017/03/31,21:20,0.90,0.11,ND
2017/03/31,21:30,0.91,0.11,ND
2017/03/31,21:40,0.90,0.12,ND
2017/03/31,21:50,0.91,0.12,ND
2017/03/31,22:00,0.93,0.12,ND
2017/03/31,22:10,0.95,0.14,ND
2017/03/31,22:20,1.0,0.13,ND
2017/03/31,22:30,1.2,0.11,ND
2017/03/31,22:40,1.2,0.13,9.3
2017/03/31,22:50,1.2,0.13,9.0
2017/03/31,23:00,1.2,0.14,ND
2017/03/31,23:10,1.2,0.14,ND
2017/03/31,23:20,1.2,0.14,ND
2017/03/31,23:30,1.1,0.13,ND
2017/03/31,23:40,1.1,0.12,ND
2017/03/31,23:50,1.1,0.096,ND
